Powrót do katalogu

STARLINK-32462

AktywnyŁącznośćVLEO
NORAD 62129·PAYLOAD·🇺🇸 United States

Wystrzelony Nov 27, 2024 z Cape Canaveral Space Force Station

Loading…

Następne Przeloty (najbliższe 24 godziny)

TLE

ŚwieżeSource: CelesTrak SupGP

Epoka: Sep 15, 2026, 02:01 UTC

1 62129C 24222R   26258.08451389  .00022642  00000+0  82025-3 0  2586
2 62129  43.0008 143.2603 0001316 278.4975  54.4219 15.27560812    12

Śledź STARLINK-32462 w czasie rzeczywistym z AllMySat

Download on the App Store